Showing default

BEIDOU 1D, 30323

Orbit data source: Space-Track

BEIDOU 1D, 30323 is a payload satellite owned by CNSA (CN) in GEO that was launched on Fri, 02 Feb 2007 UTC via a CHANG ZHENG 3A launch vehicle from the Xichang Space Center, China (XSC). Payload-class satellites include a variety of spacecraft equipped with specific instruments for various scientific and technological missions. These include communications satellites like Starlink; space stations such as the ISS; scientific satellites like the Hubble; Earth observation satellites from companies like Planet Labs, Umbra, and HawkEye 360; GPS; miniature CubeSats for education and research; and military/defense satellites.

Not visible in the next 10 days
Identifier
30323, 2007-003A
Orbit
GEO
Country
Flag of CNCN / PRC
Related business
Manufacturer
CAST
Mission
Non-operational Defense Navigation
Bus & Motor
DFH-3, FY-25
Mass
2,299 kg wet, 1,300 kg dry
Launch date (UTC)
2007-02-02 (19 years ago)
Launch vehicle
CHANG ZHENG 3A
Launch site
Xichang Space Center, China (XSC)
Object type
Payload
Rocket body
Debris
Shape & HBR
Box + 2 Pan, 9.0 m
Radar Cross Section
13.998 m², Large (>1 m²)

Expand to show TLE details & history
Last TLE update: 8 hours ago

TLE from 8 hours ago
0 BEIDOU 1D
1 30323U 07003A   26036.00844748 -.00000221  00000-0  00000+0 0  9998
2 30323   9.5817  58.3488 0057336 268.5775 288.5149  0.99155821 69397
Epoch: 2026-02-05T00:12Z
TLE epoch observation values (Epoch: 2026-02-05T00:12:09.862Z)
Latitude
-2.69471°
Longitude
116.41682°
Altitude
36,025.391 km
Speed
3.069 km/s
True Right ascension
16h 58m 29s
True Declination
-2° 41' 31"
Sunlit
Object was in daylight at epoch
Visualization orbit readout
Latitude
Unknown
Longitude
Unknown
Altitude
Unknown
Speed
Unknown
Apparent Right ascension
Unknown
Apparent Declination
Unknown
Sunlit
N/A
Visualization observer readout
Local Sidereal Time
10:11:14
Azimuth
Unknown
Elevation
Unknown
Doppler factor
Unknown
Orbital elements
Apogee altitude
36,346.963 km
Perigee altitude
35,859.818 km
Semi-major axis
42,481.527 km
Eccentricity
0.00573
Inclination
9.5817°
RAAN
58.3488°
Arg. of periapsis
268.5775°
True anomaly
287.89048°
Mean anomaly
288.5149°
Eccentric anomaly
288.20283°
Mean motion
0.24788 °/min
Orbital period
1,452.31 mins
BSTAR
0
Loading maneuver chart data...
Computing Atmospheric mass density...
Loading historical data...
Loading historical data...
Loading historical data...
Loading historical data...
Loading historical data...
Loading historical data...
Loading historical data...

Documentation

Showing up to 5 results
|